EW6576 Weather Reports


Display with metric or nautical units.
time (UTC)temp
F
wind
direction
speed
MPH
gust
MPH
rain 1hr
in
rain 24hr
in
rain mn
in
humidity
%
barometer
mb
20260510154657 65 39 1.0 1.0 0.00 0.00 0.00 82 1012.9
20260510154153 64 288 1.0 2.0 0.00 0.00 0.00 84 1013.1
20260510153649 64 38 1.0 1.0 0.00 0.00 0.00 84 1013.3
20260510153146 62 11 1.0 2.0 0.00 0.00 0.00 87 1013.3
20260510152642 62 33 1.0 2.0 0.00 0.00 0.00 88 1013.0
20260510152138 62 0 0.0 1.0 0.00 0.00 0.00 89 1013.1
20260510151635 61 120 1.0 2.0 0.00 0.00 0.00 89 1013.0
20260510151133 61 152 0.0 0.0 0.00 0.00 0.00 89 1013.1
20260510150628 61 170 1.0 1.0 0.00 0.00 0.00 89 1013.1
20260510150124 61 88 0.0 1.0 0.00 0.00 0.00 90 1013.1
20260510145620 60 230 1.0 1.0 0.00 0.00 0.00 91 1012.9
20260510145117 60 133 0.0 0.0 0.00 0.00 0.00 91 1013.0
20260510144613 60 116 1.0 1.0 0.00 0.00 0.00 91 1012.9
20260510144109 60 164 0.0 0.0 0.00 0.00 0.00 92 1013.1
20260510143605 59 348 0.0 1.0 0.00 0.00 0.00 92 1013.0
20260510143101 59 156 2.0 2.0 0.00 0.00 0.00 92 1013.2
20260510142558 60 242 1.0 1.0 0.00 0.00 0.00 92 1013.0
20260510142055 60 185 0.0 0.0 0.00 0.00 0.00 93 1013.0
20260510141552 60 162 1.0 1.0 0.00 0.00 0.00 93 1012.9
20260510141050 60 223 1.0 1.0 0.00 0.00 0.00 93 1013.0
20260510140545 60 193 0.0 0.0 0.00 0.00 0.00 93 1012.7
20260510140045 59 242 2.0 2.0 0.00 0.00 0.00 93 1012.7
20260510135541 59 179 0.0 0.0 0.00 0.00 0.00 93 1012.8
20260510135037 59 132 0.0 0.0 0.00 0.00 0.00 93 1012.9
20260510134535 59 118 1.0 1.0 0.00 0.00 0.00 93 1012.9
20260510134031 59 142 0.0 0.0 0.00 0.00 0.00 93 1012.7
20260510133527 59 190 0.0 0.0 0.00 0.00 0.00 94 1012.7
20260510133023 59 179 0.0 0.0 0.00 0.00 0.00 94 1012.6
20260510132521 59 212 1.0 1.0 0.00 0.00 0.00 94 1012.5
20260510132017 59 132 1.0 1.0 0.00 0.00 0.00 94 1012.5
20260510131515 59 131 0.0 0.0 0.00 0.00 0.00 94 1012.5
20260510131012 59 130 0.0 0.0 0.00 0.00 0.00 94 1012.5
20260510130508 59 127 0.0 1.0 0.00 0.00 0.00 94 1012.5
20260510130006 59 126 0.0 1.0 0.00 0.00 0.00 95 1012.4
20260510125502 59 117 0.0 0.0 0.00 0.00 0.00 95 1012.6
20260510124958 59 116 0.0 1.0 0.00 0.00 0.00 95 1012.5
20260510124455 59 122 0.0 1.0 0.00 0.00 0.00 95 1012.6
20260510123952 59 122 2.0 2.0 0.00 0.00 0.00 95 1012.4
20260510123447 59 121 0.0 0.0 0.00 0.00 0.00 95 1012.4
20260510122943 59 121 0.0 0.0 0.00 0.00 0.00 95 1012.3
20260510122439 59 121 0.0 0.0 0.00 0.00 0.00 96 1012.2
20260510121935 59 121 0.0 1.0 0.00 0.00 0.00 96 1012.4
20260510121433 59 125 2.0 2.0 0.00 0.00 0.00 95 1012.5
20260510120930 59 127 1.0 2.0 0.00 0.00 0.00 95 1012.4
20260510120427 59 126 1.0 1.0 0.00 0.00 0.00 95 1012.2
20260510115923 59 109 0.0 1.0 0.00 0.00 0.00 96 1012.5
20260510115421 59 117 0.0 0.0 0.00 0.00 0.00 96 1012.2
20260510114916 59 118 0.0 0.0 0.00 0.00 0.00 96 1012.3
20260510114413 59 114 1.0 1.0 0.00 0.00 0.00 96 1012.4
20260510113908 59 119 1.0 1.0 0.00 0.00 0.00 96 1012.5
20260510113404 59 120 0.0 1.0 0.00 0.00 0.00 96 1012.3
20260510112902 59 130 2.0 2.0 0.00 0.00 0.00 96 1012.3
20260510112359 58 106 0.0 0.0 0.00 0.00 0.00 96 1012.3
20260510111854 59 108 0.0 0.0 0.00 0.00 0.00 96 1012.5
20260510111351 58 118 0.0 0.0 0.00 0.00 0.00 96 1012.3
20260510110846 58 118 0.0 0.0 0.00 0.00 0.00 96 1012.2
20260510110343 58 123 1.0 1.0 0.00 0.00 0.00 96 1012.3
20260510105839 58 119 2.0 2.0 0.00 0.00 0.00 96 1012.4
20260510105339 58 108 0.0 0.0 0.00 0.00 0.00 96 1012.6
20260510104835 58 120 2.0 2.0 0.00 0.00 0.00 96 1012.6
20260510104333 58 114 0.0 0.0 0.00 0.00 0.00 96 1012.7
20260510103829 59 111 0.0 0.0 0.00 0.00 0.00 96 1012.5
20260510103326 58 120 0.0 1.0 0.00 0.00 0.00 96 1012.5
20260510102822 59 118 1.0 1.0 0.00 0.00 0.00 96 1012.6
20260510102317 58 114 0.0 0.0 0.00 0.00 0.00 96 1012.6
20260510101815 59 115 1.0 1.0 0.00 0.00 0.00 96 1012.6
20260510101313 59 116 0.0 0.0 0.00 0.00 0.00 96 1012.6
20260510100809 59 113 0.0 1.0 0.00 0.00 0.00 96 1012.6
20260510100307 58 117 0.0 0.0 0.00 0.00 0.00 96 1012.7
20260510095802 59 118 1.0 1.0 0.00 0.00 0.00 96 1012.4
20260510095257 59 123 0.0 0.0 0.00 0.00 0.00 96 1012.5
20260510094756 59 115 0.0 0.0 0.00 0.00 0.00 96 1012.5
20260510094252 59 99 1.0 1.0 0.00 0.00 0.00 95 1012.7
20260510093748 59 112 1.0 1.0 0.00 0.00 0.00 95 1012.6
20260510093245 59 111 1.0 2.0 0.00 0.00 0.00 95 1012.6
20260510092741 59 107 0.0 0.0 0.00 0.00 0.00 95 1012.9
20260510092237 59 115 0.0 0.0 0.00 0.00 0.00 95 1012.8
20260510091733 59 114 0.0 0.0 0.00 0.00 0.00 95 1012.8
20260510091231 59 117 0.0 0.0 0.00 0.00 0.00 95 1012.5
20260510090726 59 105 1.0 2.0 0.00 0.00 0.00 95 1012.6
20260510090224 59 113 0.0 0.0 0.00 0.00 0.00 95 1012.8
20260510085719 59 105 0.0 1.0 0.00 0.00 0.00 95 1013.0
20260510085214 59 85 2.0 2.0 0.00 0.00 0.00 95 1012.9
20260510084710 59 117 0.0 0.0 0.00 0.00 0.00 95 1013.0
20260510084208 59 114 0.0 0.0 0.00 0.00 0.00 95 1012.8
20260510083704 59 116 1.0 1.0 0.00 0.00 0.00 95 1012.7
20260510083201 59 114 1.0 2.0 0.00 0.00 0.00 95 1012.6
20260510082656 59 117 2.0 2.0 0.00 0.00 0.00 95 1012.9
20260510082153 59 116 1.0 1.0 0.00 0.00 0.00 95 1012.8
20260510081647 59 115 1.0 1.0 0.00 0.00 0.00 94 1012.8
20260510081144 59 117 0.0 0.0 0.00 0.00 0.00 94 1012.9
20260510080643 59 117 2.0 2.0 0.00 0.00 0.00 94 1012.9
20260510080140 59 115 0.0 0.0 0.00 0.00 0.00 94 1013.0
20260510075637 59 121 0.0 0.0 0.00 0.00 0.00 94 1013.0
20260510075134 59 94 0.0 0.0 0.00 0.00 0.00 94 1013.2
20260510074631 59 88 0.0 0.0 0.00 0.00 0.00 95 1013.3
20260510074126 59 118 0.0 0.0 0.00 0.00 0.00 95 1013.2
20260510073623 59 117 1.0 2.0 0.00 0.00 0.00 95 1013.3
20260510073120 59 117 0.0 0.0 0.00 0.00 0.00 95 1013.2
20260510072616 59 135 0.0 0.0 0.00 0.00 0.00 96 1013.3
20260510072113 59 104 0.0 0.0 0.00 0.00 0.00 96 1013.2
20260510071608 59 131 0.0 0.0 0.00 0.00 0.00 96 1013.2
20260510071107 59 130 0.0 0.0 0.00 0.00 0.00 96 1013.3
20260510070603 59 159 0.0 0.0 0.00 0.00 0.00 96 1013.2
20260510065557 58 160 0.0 0.0 0.00 0.00 0.00 97 1013.5
20260510065053 58 160 0.0 0.0 0.00 0.00 0.00 97 1013.3
20260510064549 58 159 0.0 0.0 0.00 0.00 0.00 97 1013.5
20260510064046 57 160 0.0 0.0 0.00 0.00 0.00 97 1013.7
20260510063543 57 159 0.0 0.0 0.00 0.00 0.00 96 1013.4
20260510063040 57 160 0.0 0.0 0.00 0.00 0.00 96 1013.4
20260510062536 57 160 0.0 0.0 0.00 0.00 0.00 96 1013.6
20260510062031 56 163 0.0 0.0 0.00 0.00 0.00 96 1013.5
20260510061528 56 172 0.0 0.0 0.00 0.00 0.00 96 1013.5
20260510061025 56 173 0.0 0.0 0.00 0.00 0.00 96 1013.4
20260510060521 57 173 0.0 0.0 0.00 0.00 0.00 96 1013.3
20260510060017 57 171 0.0 0.0 0.00 0.00 0.00 96 1013.3
20260510055514 57 168 0.0 0.0 0.00 0.00 0.00 96 1013.4
20260510055012 57 167 0.0 0.0 0.00 0.00 0.00 96 1013.4
20260510054507 57 158 0.0 0.0 0.00 0.00 0.00 96 1013.3
20260510054003 57 142 0.0 0.0 0.00 0.00 0.00 96 1013.4
20260510053457 57 150 0.0 0.0 0.00 0.00 0.00 96 1013.4
20260510052954 57 188 0.0 0.0 0.00 0.00 0.00 95 1013.2
20260510052450 58 191 0.0 0.0 0.00 0.00 0.00 95 1013.6
20260510051947 58 129 0.0 1.0 0.00 0.00 0.00 95 1013.3
20260510051443 58 151 0.0 1.0 0.00 0.00 0.00 95 1013.3
20260510050939 58 96 1.0 2.0 0.00 0.00 0.00 95 1013.6
20260510050436 58 115 1.0 1.0 0.00 0.00 0.00 95 1013.5
20260510045934 58 111 0.0 1.0 0.00 0.00 0.00 95 1013.5
20260510045431 58 165 1.0 2.0 0.00 0.00 0.00 95 1013.4
20260510044927 58 130 2.0 2.0 0.00 0.00 0.00 95 1013.3
20260510044424 58 93 2.0 2.0 0.00 0.00 0.00 94 1013.3
20260510043921 58 115 3.0 3.0 0.00 0.00 0.00 94 1013.6
20260510043417 58 134 1.0 1.0 0.00 0.00 0.00 94 1013.3
20260510042915 58 118 1.0 1.0 0.00 0.00 0.00 94 1013.2
20260510042411 59 119 0.0 1.0 0.00 0.00 0.00 93 1013.3
20260510041906 59 125 2.0 2.0 0.00 0.00 0.00 93 1013.3
20260510041404 59 98 2.0 2.0 0.00 0.00 0.00 93 1013.2
20260510040902 59 116 1.0 2.0 0.00 0.00 0.00 93 1013.0
20260510040358 59 132 1.0 2.0 0.00 0.00 0.00 92 1012.9
20260510035854 59 112 1.0 1.0 0.00 0.00 0.00 92 1013.0
20260510035350 59 100 3.0 5.0 0.00 0.00 0.00 92 1012.8
20260510034845 59 144 2.0 3.0 0.00 0.00 0.00 92 1013.1
20260510034343 60 82 3.0 3.0 0.00 0.00 0.00 91 1012.8
20260510033839 60 77 2.0 3.0 0.00 0.00 0.00 91 1012.8
20260510033336 60 94 3.0 3.0 0.00 0.00 0.00 91 1012.6
20260510032833 60 137 0.0 0.0 0.00 0.00 0.00 90 1012.6
20260510032330 60 147 0.0 1.0 0.00 0.00 0.00 89 1012.5
20260510031825 60 138 1.0 2.0 0.00 0.00 0.00 89 1012.5
20260510031321 61 145 2.0 2.0 0.00 0.00 0.00 89 1012.4
20260510030815 61 120 1.0 1.0 0.00 0.00 0.00 88 1012.4
20260510030312 61 108 1.0 1.0 0.00 0.00 0.00 88 1012.4
20260510025809 61 135 1.0 1.0 0.00 0.00 0.00 87 1012.2
20260510025307 61 71 2.0 3.0 0.00 0.00 0.00 87 1012.1
20260510024803 62 99 4.0 5.0 0.00 0.00 0.00 86 1012.1
20260510024300 62 153 1.0 2.0 0.00 0.00 0.00 86 1012.1
20260510023756 62 119 3.0 3.0 0.00 0.00 0.00 85 1012.3
20260510023253 62 110 5.0 7.0 0.00 0.00 0.00 85 1012.3
20260510022750 63 69 5.0 6.0 0.00 0.00 0.00 84 1012.3
20260510022250 63 104 4.0 6.0 0.00 0.00 0.00 84 1012.1
20260510021749 63 86 5.0 7.0 0.00 0.00 0.00 83 1012.0
20260510021247 64 77 4.0 5.0 0.00 0.00 0.00 82 1011.9
20260510020743 64 117 4.0 5.0 0.00 0.00 0.00 81 1012.2
20260510020243 64 136 2.0 2.0 0.00 0.00 0.00 81 1011.8
20260510015739 64 108 3.0 3.0 0.00 0.00 0.00 80 1011.9
20260510015235 65 137 2.0 2.0 0.00 0.00 0.00 79 1011.7
20260510014730 65 124 5.0 6.0 0.00 0.00 0.00 79 1011.9
20260510014228 65 168 2.0 3.0 0.00 0.00 0.00 78 1011.8
20260510013724 66 106 4.0 6.0 0.00 0.00 0.00 78 1011.9
20260510013219 66 86 4.0 7.0 0.00 0.00 0.00 77 1011.7
20260510012719 66 88 2.0 5.0 0.00 0.00 0.00 76 1011.9
20260510012215 67 94 3.0 5.0 0.00 0.00 0.00 75 1011.7
20260510011709 67 110 3.0 3.0 0.00 0.00 0.00 75 1011.8
20260510011205 67 142 7.0 8.0 0.00 0.00 0.00 74 1011.9
20260510010702 68 109 5.0 7.0 0.00 0.00 0.00 73 1011.9
20260510010159 69 123 5.0 8.0 0.00 0.00 0.00 71 1012.0
20260510005655 69 89 6.0 8.0 0.00 0.00 0.00 71 1011.8
20260510005151 70 184 4.0 6.0 0.00 0.00 0.00 70 1012.0
20260510004650 70 166 4.0 6.0 0.00 0.00 0.00 70 1011.9
20260510004148 71 214 2.0 5.0 0.00 0.00 0.00 68 1012.0
20260510003645 71 131 5.0 7.0 0.00 0.00 0.00 67 1012.0
20260510003140 71 147 5.0 8.0 0.00 0.00 0.00 66 1011.6
20260510002640 72 115 7.0 10.0 0.00 0.00 0.00 65 1011.9
20260510002138 72 125 2.0 2.0 0.00 0.00 0.00 64 1011.6
20260510001634 73 101 4.0 5.0 0.00 0.00 0.00 64 1011.9
20260510001133 73 138 7.0 8.0 0.00 0.00 0.00 62 1011.5
20260510000633 73 87 3.0 5.0 0.00 0.00 0.00 62 1011.6
20260510000131 74 353 4.0 5.0 0.00 0.00 0.00 61 1011.3
20260509235627 74 132 3.0 5.0 0.00 0.00 0.00 60 1011.5
20260509235124 74 179 4.0 6.0 0.00 0.00 0.00 60 1011.4
20260509234619 73 101 6.0 8.0 0.00 0.00 0.00 60 1011.5
20260509234118 74 91 4.0 6.0 0.00 0.00 0.00 61 1011.5
20260509233615 74 125 4.0 6.0 0.00 0.00 0.00 61 1011.6
20260509233112 73 97 3.0 3.0 0.00 0.00 0.00 60 1011.6
20260509232608 73 124 4.0 5.0 0.00 0.00 0.00 62 1011.6
20260509232106 74 125 6.0 8.0 0.00 0.00 0.00 59 1011.8
20260509231602 75 102 5.0 7.0 0.00 0.00 0.00 60 1011.7
20260509231100 74 110 0.0 0.0 0.00 0.00 0.00 61 1011.7
20260509230556 75 23 0.0 0.0 0.00 0.00 0.00 58 1011.7
20260509230053 74 93 3.0 5.0 0.00 0.00 0.00 62 1011.6
20260509225549 74 130 3.0 5.0 0.00 0.00 0.00 62 1011.8
20260509225044 74 147 2.0 3.0 0.00 0.00 0.00 61 1011.7
20260509224540 75 141 0.0 1.0 0.00 0.00 0.00 61 1012.0
20260509224037 75 76 2.0 2.0 0.00 0.00 0.00 61 1011.9
20260509223534 74 127 4.0 5.0 0.00 0.00 0.00 62 1012.0
20260509223032 75 145 1.0 1.0 0.00 0.00 0.00 60 1011.9
20260509222528 74 182 3.0 5.0 0.00 0.00 0.00 61 1012.1
20260509222024 74 138 1.0 1.0 0.00 0.00 0.00 61 1012.0
20260509221520 75 137 8.0 10.0 0.00 0.00 0.00 60 1011.9
20260509221016 75 196 1.0 2.0 0.00 0.00 0.00 61 1012.0
20260509220512 74 107 3.0 5.0 0.00 0.00 0.00 63 1012.4
20260509220008 75 103 4.0 5.0 0.00 0.00 0.00 61 1012.2
20260509215504 75 112 8.0 10.0 0.00 0.00 0.00 61 1012.2
20260509215001 75 83 2.0 3.0 0.00 0.00 0.00 61 1012.2
20260509214458 74 8 3.0 3.0 0.00 0.00 0.00 62 1012.4
20260509213955 74 187 3.0 5.0 0.00 0.00 0.00 62 1012.1
20260509213451 75 81 7.0 8.0 0.00 0.00 0.00 61 1012.2
20260509212948 75 134 6.0 8.0 0.00 0.00 0.00 61 1012.1
20260509212446 74 85 5.0 7.0 0.00 0.00 0.00 62 1012.2
20260509211942 75 127 7.0 9.0 0.00 0.00 0.00 61 1012.3
20260509211437 76 97 5.0 8.0 0.00 0.00 0.00 60 1012.4
20260509210934 76 201 2.0 3.0 0.00 0.00 0.00 60 1012.2
20260509210431 75 72 3.0 3.0 0.00 0.00 0.00 61 1012.6
20260509205927 74 119 4.0 5.0 0.00 0.00 0.00 63 1012.4
20260509205421 74 72 7.0 8.0 0.00 0.00 0.00 63 1012.4
20260509204917 75 129 5.0 6.0 0.00 0.00 0.00 62 1012.5
20260509204414 76 83 3.0 5.0 0.00 0.00 0.00 60 1012.4
20260509203911 76 192 4.0 6.0 0.00 0.00 0.00 60 1012.6
20260509203406 76 71 2.0 2.0 0.00 0.00 0.00 62 1012.6
20260509202904 75 120 6.0 8.0 0.00 0.00 0.00 62 1012.6
20260509202400 75 120 3.0 5.0 0.00 0.00 0.00 64 1012.7
20260509201855 75 102 3.0 3.0 0.00 0.00 0.00 63 1012.6
20260509201350 76 84 9.0 11.0 0.00 0.00 0.00 61 1012.5
20260509200848 76 91 7.0 9.0 0.00 0.00 0.00 62 1012.7
20260509200342 77 116 7.0 8.0 0.00 0.00 0.00 61 1012.5
20260509195840 77 116 9.0 9.0 0.00 0.00 0.00 61 1012.6
20260509195340 77 100 4.0 5.0 0.00 0.00 0.00 62 1012.7
20260509194839 77 96 7.0 9.0 0.00 0.00 0.00 60 1012.5
20260509194336 78 84 3.0 5.0 0.00 0.00 0.00 59 1012.6
20260509193832 78 153 4.0 7.0 0.00 0.00 0.00 60 1012.5
20260509193327 78 97 9.0 9.0 0.00 0.00 0.00 60 1012.6
20260509192823 79 154 4.0 7.0 0.00 0.00 0.00 59 1012.6
20260509192319 79 183 4.0 6.0 0.00 0.00 0.00 59 1012.5
20260509191814 78 100 4.0 5.0 0.00 0.00 0.00 59 1012.5
20260509191311 78 213 2.0 2.0 0.00 0.00 0.00 59 1012.7
20260509190806 79 39 3.0 3.0 0.00 0.00 0.00 58 1012.6
20260509190304 80 97 3.0 3.0 0.00 0.00 0.00 57 1012.7
20260509185801 79 53 3.0 5.0 0.00 0.00 0.00 57 1012.8
20260509185257 79 55 6.0 7.0 0.00 0.00 0.00 57 1012.8
20260509184755 79 87 1.0 2.0 0.00 0.00 0.00 58 1012.9
20260509184252 79 132 5.0 7.0 0.00 0.00 0.00 59 1012.8
20260509183748 79 111 3.0 3.0 0.00 0.00 0.00 58 1013.0
20260509183244 78 86 3.0 5.0 0.00 0.00 0.00 58 1013.1
20260509182739 77 29 3.0 3.0 0.00 0.00 0.00 59 1012.9
20260509182237 78 83 1.0 2.0 0.00 0.00 0.00 60 1013.1
20260509181734 78 130 1.0 2.0 0.00 0.00 0.00 60 1013.0
20260509181232 77 97 4.0 5.0 0.00 0.00 0.00 61 1013.1
20260509180729 77 126 1.0 1.0 0.00 0.00 0.00 61 1013.1
20260509180225 76 351 1.0 2.0 0.00 0.00 0.00 62 1013.2
20260509175721 76 54 1.0 2.0 0.00 0.00 0.00 62 1013.1
20260509175218 75 170 0.0 1.0 0.00 0.00 0.00 64 1013.2
20260509174714 74 302 3.0 5.0 0.00 0.00 0.00 64 1013.3
20260509174209 74 55 0.0 1.0 0.00 0.00 0.00 66 1013.4
20260509173706 74 329 1.0 1.0 0.00 0.00 0.00 65 1013.4
20260509173201 73 303 1.0 1.0 0.00 0.00 0.00 67 1013.5
20260509172658 73 356 1.0 2.0 0.00 0.00 0.00 68 1013.4
20260509172154 73 345 0.0 1.0 0.00 0.00 0.00 68 1013.6
20260509171649 72 228 1.0 1.0 0.00 0.00 0.00 70 1013.4
20260509171146 70 31 2.0 3.0 0.00 0.00 0.00 71 1013.6
20260509170643 69 13 2.0 2.0 0.00 0.00 0.00 73 1013.3
20260509170139 70 331 3.0 3.0 0.00 0.00 0.00 74 1013.4
20260509165637 69 341 3.0 3.0 0.00 0.00 0.00 73 1013.4
20260509165133 69 93 0.0 1.0 0.00 0.00 0.00 75 1013.5
20260509164629 68 121 0.0 0.0 0.00 0.00 0.00 76 1013.5
20260509164125 68 20 1.0 1.0 0.00 0.00 0.00 77 1013.6
20260509163623 67 121 1.0 2.0 0.00 0.00 0.00 77 1013.8
20260509163118 66 130 1.0 1.0 0.00 0.00 0.00 79 1013.8
20260509162616 65 124 0.0 0.0 0.00 0.00 0.00 81 1013.9
20260509162112 65 216 1.0 2.0 0.00 0.00 0.00 81 1014.0
20260509161608 64 13 2.0 2.0 0.00 0.00 0.00 81 1013.9
20260509161108 64 99 1.0 2.0 0.00 0.00 0.00 82 1013.7
20260509160605 64 13 2.0 2.0 0.00 0.00 0.00 83 1013.8
20260509160100 62 23 1.0 1.0 0.00 0.00 0.00 87 1013.8
20260509155556 62 86 1.0 1.0 0.00 0.00 0.00 87 1013.8
20260509155052 62 28 1.0 2.0 0.00 0.00 0.00 87 1013.8